This is the latest recevied weather packets stored in our database for station/object K8JCL-13. If no packets are shown the sender has not sent any weather packets the latest 10 day(s).
| Time | Temp. | Humidity | Pressure | Rain* | Wind** | Luminosity | Snow |
|---|---|---|---|---|---|---|---|
| 1778034667 | 10° C | 99% | 1008.3 hPa | 1.78 mm | - | 0 W/m² | - |
| 1778034364 | 10° C | 99% | 1008.4 hPa | 1.78 mm | - | 0 W/m² | - |
| 1778034061 | 10° C | 99% | 1008.4 hPa | 1.27 mm | - | 0 W/m² | - |
| 1778033759 | 10° C | 99% | 1008.4 hPa | 3.05 mm | - | 0 W/m² | - |
| 1778033450 | 10° C | 99% | 1008.4 hPa | 4.83 mm | - | 0 W/m² | - |
| 1778033148 | 10.56° C | 99% | 1008.4 hPa | 3.05 mm | - | 0 W/m² | - |
| 1778032845 | 10.56° C | 99% | 1008.5 hPa | 3.05 mm | - | 0 W/m² | - |
| 1778032543 | 10.56° C | 99% | 1008.3 hPa | 1.27 mm | - | 0 W/m² | - |
| 1778032239 | 10.56° C | 99% | 1008.2 hPa | 1.78 mm | - | 0 W/m² | - |
| 1778031937 | 11.11° C | 99% | 1008 hPa | 1.78 mm | - | 0 W/m² | - |
| 1778031632 | 11.11° C | 99% | 1007.9 hPa | 1.27 mm | - | 0 W/m² | - |
| 1778031331 | 11.67° C | 99% | 1007.8 hPa | 1.27 mm | - | 0 W/m² | - |
| 1778031027 | 12.22° C | 99% | 1007.8 hPa | 1.78 mm | - | 0 W/m² | - |
| 1778030723 | 12.78° C | 99% | 1007.8 hPa | 3.05 mm | - | 0 W/m² | - |
| 1778030420 | 12.78° C | 99% | 1007.5 hPa | 3.05 mm | - | 0 W/m² | - |
| 1778030118 | 15° C | 99% | 1007.4 hPa | 4.83 mm | - | 0 W/m² | - |
| 1778029814 | 15° C | 99% | 1007.4 hPa | 4.83 mm | - | 0 W/m² | - |
| 1778029508 | 15° C | 99% | 1007.8 hPa | 6.1 mm | - | 0 W/m² | - |
| 1778029204 | 15° C | 99% | 1007.8 hPa | 8.89 mm | - | 0 W/m² | - |
| 1778028901 | 15° C | 99% | 1007.7 hPa | 4.83 mm | - | 0 W/m² | - |
| 1778028596 | 15° C | 99% | 1007.6 hPa | 0 mm | - | 0 W/m² | - |
| 1778028295 | 15° C | 99% | 1007.5 hPa | 0 mm | - | 0 W/m² | - |
| 1778027990 | 15° C | 99% | 1007.3 hPa | 1.27 mm | - | 0 W/m² | - |
| 1778027687 | 15° C | 99% | 1007.3 hPa | 1.27 mm | - | 0 W/m² | - |
| 1778027383 | 15° C | 99% | 1007.1 hPa | 1.78 mm | - | 0 W/m² | - |
* Rain latest hour (hover to see other rain measurements)
** Current wind speed in m/s (hover to see current wind gust speed)